www.pogodaiklimat.ru

Погода и климат >> Архив погоды >> Малайзия >> Ситаван


ПОГОДА в Ситаване

  • Прогноз погоды в Ситаване
  • Монитор погоды в Ситаване

АРХИВ ПОГОДЫ в Ситаване

Время (UTC), дата Ветер
(напр.,м/с)
 
Видим.   Явления Облачность Т
(С)
Тd
(С)
f
(%)
Тe
(С)
Тes
(С)
Комфортность P
(гПа)
Po
(гПа)
Тmin
(С)
Tmax
(С)
R
(мм)
R24
(мм)
S
(см)
03 9.06 ЮВ 2 13 км мгла 9/4 660 м
[Cu med, cong Ac trans Ci sp]
+30.1 +25.7 77 +44 +49 опасность
перегрева
1011.4 1010.5
06 9.06 Ю 2 13 км мгла 9/4 630 м
[Cu med, cong Ac trans Ci sp]
+31.8 +26.1 72 +48 +54 опасность
перегрева
1009.4 1008.5
09 9.06 Ю 2 12 км мгла 9/4 500 м
[Cb cap Ac und Ci ing]
+30.3 +25.7 76 +45 +47 опасность
перегрева
1007.3 1006.4
12 9.06 ЮВ 1 11 км мгла 9/4 900 м
[Sc Ac trans Cs]
+29.3 +26.3 84 +45 +45 опасность
перегрева
1008.1 1007.2 +32.4
15 9.06 СВ 1 9000 м слаб. дождь 9/4 900 м
[Sc Ac trans Cs]
+27.1 +25.8 93 +40 +40 очень
душно
1010.1 1009.2
18 9.06 штиль 0 8000 м в посл. час дождь 9/3 930 м
[Sc Ac lent Cs]
+26.3 +25.4 95 +38 +38 очень
душно
1009.3 1008.4 0.2
21 9.06 штиль 0 7000 м мгла 9/3 960 м
[Sc Ac lent Cs]
+25.7 +24.9 95 +36 +36 очень
душно
1008.0 1007.1
00 10.06 В 1 7000 м дымка 9/3 1000 м
[Sc Ac und Ci sp]
+25.5 +24.7 95 +36 +36 очень
душно
1008.9 1008.0 +24.9 0.2
03 10.06 В 3 11 км мгла 9/3 630 м
[Cu med, cong Ac trans Ci sp]
+30.7 +26.2 77 +46 +51 опасность
перегрева
1008.8 1007.9
06 10.06 Ю 4 11 км мгла 9/4 500 м
[Cb cap Ac trans Ci ing]
+32.2 +26.6 72 +49 +54 опасность
перегрева
1007.5 1006.6
09 10.06 Ю 3 12 км мгла 9/4 660 м
[Cu hum Ac trans Ci sp]
+31.5 +26.1 73 +47 +49 опасность
перегрева
1005.8 1004.9
12 10.06 ЮВ 2 10 км зарница 9/4 500 м
[Cb cap Ac lent Ci sp]
+30.0 +26.2 80 +45 +45 опасность
перегрева
1007.9 1007.0 +32.5
15 10.06 штиль 0 8000 м в посл. час дождь 9/3 930 м
[Sc Ac lent Cs]
+26.5 +25.0 91 +38 +38 очень
душно
1009.9 1009.0
18 10.06 штиль 0 8000 м мгла {дождь} 9/3 960 м
[Sc Ac lent Cs]
+26.2 +25.0 93 +37 +37 очень
душно
1009.7 1008.8 0.6
21 10.06 С 1 7000 м мгла 9/4 960 м
[Sc Ac lent Cs]
+26.0 +25.0 94 +37 +37 очень
душно
1008.4 1007.5
00 11.06 штиль 0 8000 м в посл. час дождь 9/4 1000 м
[Cb cap Ac lent Cs]
+25.7 +24.5 93 +36 +36 очень
душно
1009.5 1008.6 +25.4 0.6
03 11.06 СВ 1 11 км мгла 9/3 630 м
[Cu Sc Ac lent Cs]
+31.0 +26.4 77 +47 +54 опасность
перегрева
1011.1 1010.2
06 11.06 ЮВ 3 12 км мгла 9/3 660 м
[Cu hum Ac trans Ci sp]
+30.4 +25.6 76 +45 +51 опасность
перегрева
1009.8 1008.9
09 11.06 В 2 12 км мгла 9/4 500 м
[Cb cap Ac und Ci sp]
+29.9 +23.4 68 +40 +43 очень
душно
1007.9 1007.0
12 11.06 СВ 1 10 км мгла 9/3 960 м
[Sc Ac trans Cs]
+27.2 +25.4 90 +40 +40 очень
душно
1009.2 1008.3 +31.2
15 11.06 В 1 10 км мгла 9/3 960 м
[Sc Ac trans Cs]
+26.2 +24.9 93 +37 +37 очень
душно
1010.6 1009.7
18 11.06 В 1 9000 м мгла 9/4 900 м
[Sc Ac trans Cs]
+25.7 +24.8 95 +36 +36 очень
душно
1010.0 1009.1
21 11.06 СВ 1 9000 м мгла 9/5 240 м
[Sc Ac lent Cs]
+25.5 +24.7 95 +36 +36 очень
душно
1008.8 1007.9
00 12.06 СВ 1 10 км мгла 9/3 1000 м
[Cu Sc Ac lent Ci sp]
+25.7 +24.5 93 +36 +36 очень
душно
1010.5 1009.6 +25.0
03 12.06 В 3 12 км мгла 9/4 630 м
[Cu hum Ac trans Ci sp]
+30.0 +26.2 80 +45 +49 опасность
перегрева
1011.5 1010.6
06 12.06 Ю 4 13 км мгла 9/4 660 м
[Cu hum Ac trans Ci fib]
+32.0 +26.5 73 +49 +54 опасность
перегрева
1009.3 1008.4
09 12.06 Ю 3 13 км мгла 9/3 660 м
[Cu med, cong Ac trans Ci sp]
+31.3 +26.4 75 +47 +50 опасность
перегрева
1007.0 1006.1
12 12.06 ЮВ 2 13 км мгла 9/1 960 м
[Sc Ac lent Ci sp]
+29.6 +26.3 82 +45 +45 опасность
перегрева
1008.6 1007.7 +32.9
15 12.06 ЮВ 2 10 км мгла 9/3 1000 м
[Sc Ac lent Ci sp]
+28.6 +25.5 83 +42 +42 опасность
перегрева
1010.8 1009.9
18 12.06 СВ 1 9000 м мгла 9/4 900 м
[Sc Ac trans Ci sp]
+26.5 +25.0 91 +38 +38 очень
душно
1009.8 1008.9
21 12.06 В 1 9000 м мгла 9/4 900 м
[Sc Ac trans Cs]
+25.7 +24.4 93 +36 +36 очень
душно
1008.9 1008.0
00 13.06 В 1 10 км мгла 9/3 1000 м
[Sc Ac lent Ci sp]
+26.1 +24.3 90 +36 +37 очень
душно
1010.2 1009.3 +25.3
03 13.06 В 2 14 км мгла 9/1 660 м
[Cu med, cong Ac trans Ci sp]
+30.4 +25.3 74 +44 +51 опасность
перегрева
1011.3 1010.4
06 13.06 ЮВ 2 14 км мгла 9/4 500 м
[Cb cap Ac lent Ci sp]
+32.5 +25.9 68 +48 +54 опасность
перегрева
1009.3 1008.4
09 13.06 ЮВ 2 14 км мгла 9/4 660 м
[Cu hum Ac trans Ci sp]
+33.3 +25.1 62 +47 +49 опасность
перегрева
1007.3 1006.4
12 13.06 штиль 0 11 км мгла 9/3 1000 м
[Sc Ac trans Ci sp]
+30.6 +27.4 83 +49 +49 опасность
перегрева
1009.0 1008.1 +33.7
15 13.06 ЮВ 2 10 км мгла 9/3 960 м
[Sc Ac trans Ci sp]
+29.0 +26.1 84 +44 +44 опасность
перегрева
1011.2 1010.3
18 13.06 штиль 0 9000 м мгла 9/3 960 м
[Sc Ac lent Ci sp]
+27.1 +24.2 84 +38 +38 очень
душно
1010.7 1009.8
21 13.06 СВ 1 7000 м мгла 9/4 900 м
[Sc Ac lent Cs]
+26.1 +24.9 93 +37 +37 очень
душно
1009.6 1008.7
00 14.06 СВ 2 8000 м мгла {дождь} 9/4 1000 м
[Sc Ac lent Ci sp]
+24.5 +23.2 92 +33 +33 очень
душно
1010.1 1009.2 +24.5 0.0
03 14.06 В 2 14 км мгла 8/1 660 м
[Cu hum Ac trans Ci fib]
+30.0 +24.3 72 +42 +50 опасность
перегрева
1010.5 1009.6
06 14.06 ЮВ 3 14 км мгла 8/3 660 м
[Cu hum Ac trans Ci fib]
+32.8 +26.1 68 +49 +57 опасность
перегрева
1008.5 1007.6
09 14.06 ЮВ 2 14 км мгла 9/4 500 м
[Cb cap Ac und Ci sp]
+33.3 +26.6 68 +50 +53 опасность
перегрева
1006.6 1005.7
12 14.06 штиль 0 10 км мгла 9/3 960 м
[Sc Ac trans Ci sp]
+30.1 +27.0 84 +48 +48 опасность
перегрева
1007.6 1006.7 +33.7
15 14.06 штиль 0 10 км мгла 9/3 960 м
[Sc Ac trans Ci sp]
+28.2 +26.2 89 +43 +43 опасность
перегрева
1010.6 1009.7
18 14.06 штиль 0 10 км мгла 9/3 960 м
[Sc Ac lent Ci sp]
+27.8 +25.9 89 +41 +41 опасность
перегрева
1009.8 1008.9
21 14.06 В 1 10 км мгла 9/3 960 м
[Sc Ac lent Ci sp]
+27.0 +25.6 92 +40 +40 очень
душно
1010.1 1009.2
00 15.06 В 2 8000 м мгла 9/3 500 м
[Cb cap Ac lent Cs]
+25.5 +23.6 89 +35 +35 очень
душно
1011.3 1010.4 +24.5
03 15.06 СВ 1 12 км мгла 9/4 500 м
[Cb cap Ac trans Ci sp]
+29.1 +24.3 75 +41 +46 опасность
перегрева
1012.0 1011.1
06 15.06 В 2 12 км мгла 9/4 500 м
[Cb cap Ac lent Ci sp]
+31.8 +25.1 68 +46 +53 опасность
перегрева
1010.0 1009.1
09 15.06 СВ 2 12 км мгла 9/3 700 м
[Cu med, cong Ac lent Ci sp]
+30.3 +25.9 77 +45 +48 опасность
перегрева
1007.8 1006.9
12 15.06 ЮВ 1 10 км мгла 9/3 960 м
[Sc Ac lent Ci sp]
+28.7 +25.5 83 +42 +42 опасность
перегрева
1008.4 1007.5 +32.0
15 15.06 штиль 0 10 км мгла 9/3 960 м
[Sc Ac trans Ci sp]
+26.9 +25.2 90 +39 +39 очень
душно
1010.5 1009.6
18 15.06 штиль 0 9000 м мгла 9/4 900 м
[Sc Ac trans Ci sp]
+25.9 +25.1 95 +37 +37 очень
душно
1010.7 1009.8
21 15.06 СВ 1 9000 м мгла 9/4 900 м
[Sc Ac trans Cs]
+25.2 +24.2 94 +35 +35 очень
душно
1008.7 1007.8
00 16.06 СВ 1 9000 м мгла 9/3 600 м
[Sc Ac trans Ci sp]
+25.4 +24.2 93 +35 +36 очень
душно
1010.1 1009.2 +24.8

 

Местоположение метеостанции Ситаван (Малайзия): широта 4.22 долгота 100.70 высота над уровнем моря 8 м.

В архиве по умолчанию представлена погода в Ситаване за последнюю неделю. Архивные данные за месяц целиком и за предыдущие месяцы, начиная с января 2011 года, Вы можете получить, выбрав интересующий диапазон дат из раскрывающегося списка и нажав кнопку "Ввод!".


*Определитесь, кто Вы:
робот инопланетянин человек

Внимание! Время в таблицах - всемирное. Для получения местного времени необходимо прибавить поправку, которая равна 7 ч.

Смотрите также архив погоды в соседних городах и на ближайших метеорологических станциях:

Погода в Ипохе (Малайзия) (59 км)
Погода на Нагорье Кэмерон (Малайзия) (79 км)
Погода в Пенанге (Малайзия) (130 км)
Погода на Авиабазе Баттерворт (Малайзия) (143 км)
Погода в Куала-Лумпуре (Малайзия) (155 км)
Погода в Куала-Лумпур аэропорту (Малайзия) (200 км)
Погода в Алор Стар (Малайзия) (223 км)
Погода в Белаване (Индонезия) (227 км)
Погода в Медан Полония (Индонезия) (236 км)
Погода в Лангкави (Малайзия) (258 км)

Пояснения к столбцам:

Ветер - указаны скорость ветра в м/с - средняя за 10 мин, порывы в срок и между сроками (в фигурных скобках) и направление, откуда дует ветер: С - северный, СВ - северо-восточный, В - восточный, ЮВ - юго-восточный, Ю - южный, ЮЗ - юго-западный, З - западный, СЗ - северо-западный.
Видимость - горизонтальная дальность видимости в метрах или километрах. При видимости от 1 до 10 км при отсутствии осадков обычно наблюдается дымка, при ухудшении видимости до 1 км и менее - туман. В сухую погоду видимость может ухудшаться дымом, пылью или мглою.
Явления - указаны атмосферные явления, наблюдавшиеся в срок или в последний час перед сроком; фигурными скобками обозначены явления, наблюдавшиеся между сроками (за 1-3 часа до срока); квадратными скобками обозначены град или гололедные отложения с указанием их диаметра в мм.
Облачность - указаны через наклонную черту общая и нижняя облачность в баллах и высота нижней границы облаков в метрах; квадратными скобками обозначены формы облаков: Ci - перистые, Cs - перисто-слоистые, Cc - перисто-кучевые, Ac - высококучевые, As - высокослоистые, Sc - слоисто-кучевые, Ns - слоисто-дождевые, Cu - кучевые, Cb - кучево-дождевые. Подробнее классификацию облаков см. в Атласе облаков (PDF).
T - Температура воздуха - температура, измеренная на высоте 2 м над землей.
Td - Температура точки росы - температура, при понижении до которой содержащийся в воздухе водяной пар достигнет насыщения.
f - Относительная влажность воздуха - влажноcть воздуха, измеренная на высоте 2 м над землей.
Te - Эффективная температура - температура, которую ощущает одетый по сезону человек в тени. Характеристика душности погоды. При расчете учитывается влияние влажности воздуха и скорости ветра на теплоощущения человека.
Tes - Эффективная температура на солнце - температура, которую ощущает человек, с поправкой на солнечный нагрев. Характеристика знойности погоды. Зависит от высоты солнца над горизонтом, облачности и скорости ветра. Ночью, в пасмурную погоду, а также при ветре 12 м/с и более поправка равна нулю.
P - Атмосферное давление - приведенное к уровню моря атмосферное давление.
Po - Атмосферное давление - измеренное на уровне метеостанции атмосферное давление.
Tmin - Минимальная температура - минимум температуры воздуха на высоте 2 м над землей.
Tmax - Максимальная температура - максимум температуры воздуха на высоте 2 м над землей.
R - Количество осадков - Количество выпавших осадков за период времени, мм. При наведении курсора мыши на число - период времени, за который выпало указанное количество осадков.
R24 - Количество осадков - Количество выпавших осадков за 24 часа, мм.
S - Снежный покров - Высота снежного покрова, см. При наведении курсора мыши на число - состояние снежного покрова и степень покрытия местности в баллах.